Terminal Aerodrome Forecast
Issued by NWS State College, PA

Home | Current Version | Previous Version | Text Only | Print | Product List | Glossary On
Versions: 1 2 3 4 5 6 7 8 9 10 11 12 13 14 15 16 17 18 19 20 21 22 23 24 25 26 27 28 29 30 31 32 33 34 35 36 37 38 39 40 41 42 43 44 45 46 47 48 49 50
000
FTUS41 KCTP 072349
TAFMDT
TAF
KMDT 072349Z 0800/0824 20006KT P6SM SCT050 SCT200
     FM080800 26005KT P6SM BKN100
     FM081200 29006KT 4SM -SHRA BR OVC025
     FM081800 31006KT P6SM BKN040=

USA.gov is the U.S. government's official web portal to all federal, state and local government web resources and services.